Time,TemperatureF,DewpointF,PressureIn,WindDirection,WindDirectionDegrees,WindSpeedMPH,WindSpeedGustMPH,Humidity,HourlyPrecipIn,Conditions,Clouds,dailyrainin,SoftwareType,DateUTC
2013-10-22 00:05:00,59.4,17.1,29.97,ENE,68,0.9,0.9,19,0.00,,---,0.00,VWS V14.01,2013-10-22 07:05:00,
2013-10-22 00:10:00,58.6,16.5,29.97,ENE,68,0.9,0.9,19,0.00,,---,0.00,VWS V14.01,2013-10-22 07:10:00,
2013-10-22 00:15:00,58.1,16.1,29.97,ENE,68,0.9,0.9,19,0.00,,---,0.00,VWS V14.01,2013-10-22 07:15:00,
2013-10-22 00:20:00,57.9,15.9,29.97,ENE,68,0.9,0.9,19,0.00,,---,0.00,VWS V14.01,2013-10-22 07:20:00,
2013-10-22 00:25:00,57.4,15.5,29.97,ENE,68,0.9,0.9,19,0.00,,---,0.00,VWS V14.01,2013-10-22 07:25:00,
2013-10-22 00:30:00,57.2,18.7,29.97,ENE,68,0.9,0.9,22,0.00,,---,0.00,VWS V14.01,2013-10-22 07:30:00,
2013-10-22 00:35:00,56.8,16.2,29.97,ENE,68,0.9,0.9,20,0.00,,---,0.00,VWS V14.01,2013-10-22 07:35:00,
2013-10-22 00:40:00,56.3,18.0,29.97,ENE,68,0.9,0.9,22,0.00,,---,0.00,VWS V14.01,2013-10-22 07:40:00,
2013-10-22 00:45:00,55.8,17.5,29.97,ENE,68,0.9,0.9,22,0.00,,---,0.00,VWS V14.01,2013-10-22 07:45:00,
2013-10-22 00:50:00,55.4,17.2,29.97,ENE,68,0.9,0.9,22,0.00,,---,0.00,VWS V14.01,2013-10-22 07:50:00,
2013-10-22 00:56:00,55.6,17.4,29.97,ENE,68,0.9,0.9,22,0.00,,---,0.00,VWS V14.01,2013-10-22 07:56:00,
2013-10-22 01:01:00,55.6,17.4,29.97,ENE,68,0.9,0.9,22,0.00,,---,0.00,VWS V14.01,2013-10-22 08:01:00,
2013-10-22 01:06:00,55.2,18.1,29.97,ENE,68,0.9,0.9,23,0.00,,---,0.00,VWS V14.01,2013-10-22 08:06:00,
2013-10-22 01:11:00,54.9,17.8,29.97,ENE,68,0.9,0.9,23,0.00,,---,0.00,VWS V14.01,2013-10-22 08:11:00,
2013-10-22 01:16:00,54.5,17.5,29.97,ENE,68,0.9,0.9,23,0.00,,---,0.00,VWS V14.01,2013-10-22 08:16:00,
2013-10-22 01:21:00,55.6,17.4,29.97,ENE,68,0.9,0.9,22,0.00,,---,0.00,VWS V14.01,2013-10-22 08:21:00,
2013-10-22 01:26:00,55.8,17.5,29.97,ENE,68,0.9,0.9,22,0.00,,---,0.00,VWS V14.01,2013-10-22 08:26:00,
2013-10-22 01:31:00,56.5,18.1,29.97,ENE,68,0.9,0.9,22,0.00,,---,0.00,VWS V14.01,2013-10-22 08:31:00,
2013-10-22 01:36:00,56.5,18.1,29.97,ENE,68,0.9,0.9,22,0.00,,---,0.00,VWS V14.01,2013-10-22 08:36:00,
2013-10-22 01:41:00,55.9,17.7,29.97,ENE,68,0.9,0.9,22,0.00,,---,0.00,VWS V14.01,2013-10-22 08:41:00,
2013-10-22 01:46:00,55.6,17.4,30.00,ENE,68,0.9,0.9,22,0.00,,---,0.00,VWS V14.01,2013-10-22 08:46:00,
2013-10-22 01:51:00,55.0,17.9,30.00,ENE,68,0.9,0.9,23,0.00,,---,0.00,VWS V14.01,2013-10-22 08:51:00,
2013-10-22 01:56:00,54.7,17.6,30.00,ENE,68,0.9,0.9,23,0.00,,---,0.00,VWS V14.01,2013-10-22 08:56:00,
2013-10-22 02:02:00,54.7,17.6,30.00,ENE,68,0.9,0.9,23,0.00,,---,0.00,VWS V14.01,2013-10-22 09:02:00,
2013-10-22 02:07:00,54.7,17.6,30.00,ENE,68,0.9,0.9,23,0.00,,---,0.00,VWS V14.01,2013-10-22 09:07:00,
2013-10-22 02:12:00,54.7,17.6,29.97,ENE,68,0.9,0.9,23,0.00,,---,0.00,VWS V14.01,2013-10-22 09:12:00,
2013-10-22 02:17:00,54.9,17.8,29.97,ENE,68,0.9,0.9,23,0.00,,---,0.00,VWS V14.01,2013-10-22 09:17:00,
2013-10-22 02:22:00,54.9,17.8,29.97,ENE,68,0.9,0.9,23,0.00,,---,0.00,VWS V14.01,2013-10-22 09:22:00,
2013-10-22 02:27:00,55.2,18.1,29.97,ENE,68,0.9,0.9,23,0.00,,---,0.00,VWS V14.01,2013-10-22 09:27:00,
2013-10-22 02:32:00,55.0,17.9,29.97,ENE,68,0.9,0.9,23,0.00,,---,0.00,VWS V14.01,2013-10-22 09:32:00,
2013-10-22 02:37:00,54.9,17.8,29.97,ENE,68,0.9,0.9,23,0.00,,---,0.00,VWS V14.01,2013-10-22 09:37:00,
2013-10-22 02:42:00,55.0,17.9,29.97,ENE,68,0.9,0.9,23,0.00,,---,0.00,VWS V14.01,2013-10-22 09:42:00,
2013-10-22 02:47:00,55.0,17.9,29.97,ENE,68,0.9,0.9,23,0.00,,---,0.00,VWS V14.01,2013-10-22 09:47:00,
2013-10-22 02:52:00,54.9,17.8,29.97,ENE,68,0.9,0.9,23,0.00,,---,0.00,VWS V14.01,2013-10-22 09:52:00,
2013-10-22 02:58:00,54.9,19.7,29.97,ENE,68,0.9,0.9,25,0.00,,---,0.00,VWS V14.01,2013-10-22 09:58:00,
2013-10-22 03:03:00,55.2,20.0,29.97,ENE,68,0.9,0.9,25,0.00,,---,0.00,VWS V14.01,2013-10-22 10:03:00,
2013-10-22 03:08:00,55.2,20.0,29.97,ENE,68,0.9,0.9,25,0.00,,---,0.00,VWS V14.01,2013-10-22 10:08:00,
2013-10-22 03:13:00,55.2,20.0,29.97,ENE,68,0.9,0.9,25,0.00,,---,0.00,VWS V14.01,2013-10-22 10:13:00,
2013-10-22 03:18:00,55.2,20.0,29.97,ENE,68,0.9,0.9,25,0.00,,---,0.00,VWS V14.01,2013-10-22 10:18:00,
2013-10-22 03:23:00,55.4,20.2,29.97,ENE,68,0.9,0.9,25,0.00,,---,0.00,VWS V14.01,2013-10-22 10:23:00,
2013-10-22 03:28:00,54.9,19.7,29.97,ENE,68,0.9,0.9,25,0.00,,---,0.00,VWS V14.01,2013-10-22 10:28:00,
2013-10-22 03:33:00,54.1,17.2,29.97,ENE,68,0.9,0.9,23,0.00,,---,0.00,VWS V14.01,2013-10-22 10:33:00,
2013-10-22 03:38:00,53.6,18.6,29.97,ENE,68,0.9,0.9,25,0.00,,---,0.00,VWS V14.01,2013-10-22 10:38:00,
2013-10-22 03:43:00,53.6,18.6,29.97,ENE,68,0.9,0.9,25,0.00,,---,0.00,VWS V14.01,2013-10-22 10:43:00,
2013-10-22 03:49:00,53.8,18.8,29.97,ENE,68,0.9,0.9,25,0.00,,---,0.00,VWS V14.01,2013-10-22 10:49:00,
2013-10-22 03:54:00,54.0,19.0,29.97,ENE,68,0.9,0.9,25,0.00,,---,0.00,VWS V14.01,2013-10-22 10:54:00,
2013-10-22 03:59:00,54.1,20.0,30.00,ENE,68,0.9,0.9,26,0.00,,---,0.00,VWS V14.01,2013-10-22 10:59:00,
2013-10-22 04:04:00,54.1,20.0,30.00,ENE,68,0.9,0.9,26,0.00,,---,0.00,VWS V14.01,2013-10-22 11:04:00,
2013-10-22 04:09:00,53.8,19.7,30.00,ENE,68,0.9,0.9,26,0.00,,---,0.00,VWS V14.01,2013-10-22 11:09:00,
2013-10-22 04:14:00,53.4,19.4,30.00,ENE,68,0.9,0.9,26,0.00,,---,0.00,VWS V14.01,2013-10-22 11:14:00,
2013-10-22 04:19:00,53.4,19.4,30.00,ENE,68,0.9,0.9,26,0.00,,---,0.00,VWS V14.01,2013-10-22 11:19:00,
2013-10-22 04:24:00,53.2,19.3,30.00,ENE,68,0.9,0.9,26,0.00,,---,0.00,VWS V14.01,2013-10-22 11:24:00,
2013-10-22 04:29:00,53.1,19.1,30.00,ENE,68,0.9,0.9,26,0.00,,---,0.00,VWS V14.01,2013-10-22 11:29:00,
2013-10-22 04:34:00,53.6,19.6,30.00,ENE,68,0.9,0.9,26,0.00,,---,0.00,VWS V14.01,2013-10-22 11:34:00,
2013-10-22 04:39:00,53.8,19.7,30.00,ENE,68,0.9,0.9,26,0.00,,---,0.00,VWS V14.01,2013-10-22 11:39:00,
2013-10-22 04:44:00,54.0,19.9,30.00,ENE,68,0.9,0.9,26,0.00,,---,0.00,VWS V14.01,2013-10-22 11:44:00,
2013-10-22 04:50:00,54.5,20.3,30.00,ENE,68,0.9,0.9,26,0.00,,---,0.00,VWS V14.01,2013-10-22 11:50:00,
2013-10-22 04:55:00,54.5,20.3,30.00,ENE,68,0.9,0.9,26,0.00,,---,0.00,VWS V14.01,2013-10-22 11:55:00,
2013-10-22 05:00:00,54.5,20.3,30.00,ENE,68,0.9,0.9,26,0.00,,---,0.00,VWS V14.01,2013-10-22 12:00:00,
2013-10-22 05:05:00,54.5,20.3,30.00,ENE,68,0.9,0.9,26,0.00,,---,0.00,VWS V14.01,2013-10-22 12:05:00,
2013-10-22 05:10:00,54.5,20.3,30.00,ENE,68,0.9,0.9,26,0.00,,---,0.00,VWS V14.01,2013-10-22 12:10:00,
2013-10-22 05:15:00,54.5,20.3,30.00,North,0,1.1,1.1,26,0.00,,---,0.00,VWS V14.01,2013-10-22 12:15:00,
2013-10-22 05:20:00,54.3,20.2,30.00,NNW,338,1.1,1.1,26,0.00,,---,0.00,VWS V14.01,2013-10-22 12:20:00,
2013-10-22 05:25:00,54.1,20.0,30.00,NW,315,0.0,0.0,26,0.00,,---,0.00,VWS V14.01,2013-10-22 12:25:00,
2013-10-22 05:30:00,53.8,19.7,30.00,NW,315,0.0,0.0,26,0.00,,---,0.00,VWS V14.01,2013-10-22 12:30:00,
2013-10-22 05:35:00,53.8,19.7,30.00,ESE,112,0.0,0.0,26,0.00,,---,0.00,VWS V14.01,2013-10-22 12:35:00,
2013-10-22 05:41:00,54.0,19.9,30.00,ESE,112,1.1,1.1,26,0.00,,---,0.00,VWS V14.01,2013-10-22 12:41:00,
2013-10-22 05:46:00,54.3,20.2,30.00,NE,45,2.0,2.0,26,0.00,,---,0.00,VWS V14.01,2013-10-22 12:46:00,
2013-10-22 05:51:00,54.0,19.9,30.00,NE,45,2.0,2.0,26,0.00,,---,0.00,VWS V14.01,2013-10-22 12:51:00,
2013-10-22 05:56:00,54.5,20.3,30.00,NE,45,2.0,2.0,26,0.00,,---,0.00,VWS V14.01,2013-10-22 12:56:00,
2013-10-22 06:01:00,54.3,20.2,30.00,NE,45,2.0,2.0,26,0.00,,---,0.00,VWS V14.01,2013-10-22 13:01:00,
2013-10-22 06:06:00,54.1,20.0,30.00,NE,45,2.0,2.0,26,0.00,,---,0.00,VWS V14.01,2013-10-22 13:06:00,
2013-10-22 06:11:00,53.6,18.6,30.00,SE,135,1.6,1.6,25,0.00,,---,0.00,VWS V14.01,2013-10-22 13:11:00,
2013-10-22 06:16:00,53.6,19.6,30.00,ENE,68,2.0,2.0,26,0.00,,---,0.00,VWS V14.01,2013-10-22 13:16:00,
2013-10-22 06:21:00,54.5,20.3,30.00,ENE,68,2.0,2.0,26,0.00,,---,0.00,VWS V14.01,2013-10-22 13:21:00,
2013-10-22 06:26:00,54.3,20.2,30.00,ENE,68,2.0,2.0,26,0.00,,---,0.00,VWS V14.01,2013-10-22 13:26:00,
2013-10-22 06:31:00,54.5,20.3,30.00,ENE,68,2.0,2.0,26,0.00,,---,0.00,VWS V14.01,2013-10-22 13:31:00,
2013-10-22 06:36:00,54.9,20.6,30.00,ENE,68,2.0,2.0,26,0.00,,---,0.00,VWS V14.01,2013-10-22 13:36:00,
2013-10-22 06:41:00,54.5,19.4,30.00,ENE,68,1.3,2.0,25,0.00,,---,0.00,VWS V14.01,2013-10-22 13:41:00,
2013-10-22 06:46:00,54.1,20.0,30.00,East,90,2.0,2.0,26,0.00,,---,0.00,VWS V14.01,2013-10-22 13:46:00,
2013-10-22 06:52:00,54.0,19.0,30.00,NE,45,2.0,2.0,25,0.00,,---,0.00,VWS V14.01,2013-10-22 13:52:00,
2013-10-22 06:57:00,53.6,18.6,30.00,East,90,2.0,2.0,25,0.00,,---,0.00,VWS V14.01,2013-10-22 13:57:00,
2013-10-22 07:02:00,53.4,19.4,30.00,East,90,0.0,0.0,26,0.00,,---,0.00,VWS V14.01,2013-10-22 14:02:00,
2013-10-22 07:07:00,53.1,19.1,30.00,SSW,202,1.3,1.3,26,0.00,,---,0.00,VWS V14.01,2013-10-22 14:07:00,
2013-10-22 07:12:00,53.2,19.3,30.03,SE,135,0.9,1.1,26,0.00,,---,0.00,VWS V14.01,2013-10-22 14:12:00,
2013-10-22 07:17:00,53.6,19.6,30.03,SSE,158,0.0,1.6,26,0.00,,---,0.00,VWS V14.01,2013-10-22 14:17:00,
2013-10-22 07:22:00,54.0,19.9,30.03,ESE,112,2.7,2.7,26,0.00,,---,0.00,VWS V14.01,2013-10-22 14:22:00,
2013-10-22 07:27:00,54.5,20.3,30.03,SE,135,1.1,2.7,26,0.00,,---,0.00,VWS V14.01,2013-10-22 14:27:00,
2013-10-22 07:32:00,55.2,21.0,30.03,East,90,2.9,2.9,26,0.00,,---,0.00,VWS V14.01,2013-10-22 14:32:00,
2013-10-22 07:37:00,55.9,20.6,30.03,East,90,2.9,2.9,25,0.00,,---,0.00,VWS V14.01,2013-10-22 14:37:00,
2013-10-22 07:42:00,56.7,21.3,30.03,East,90,2.9,2.9,25,0.00,,---,0.00,VWS V14.01,2013-10-22 14:42:00,
2013-10-22 07:47:00,57.2,21.7,30.03,East,90,2.9,2.9,25,0.00,,---,0.00,VWS V14.01,2013-10-22 14:47:00,
2013-10-22 07:53:00,57.9,22.3,30.03,East,90,2.9,2.9,25,0.00,,---,0.00,VWS V14.01,2013-10-22 14:53:00,
2013-10-22 07:58:00,58.8,23.1,30.03,East,90,2.9,2.9,25,0.00,,---,0.00,VWS V14.01,2013-10-22 14:58:00,
2013-10-22 08:03:00,59.4,23.6,30.03,SE,135,3.8,3.8,25,0.00,,---,0.00,VWS V14.01,2013-10-22 15:03:00,
2013-10-22 08:08:00,60.3,24.3,30.03,ESE,112,3.1,3.1,25,0.00,,---,0.00,VWS V14.01,2013-10-22 15:08:00,
2013-10-22 08:13:00,61.0,24.0,30.03,East,90,2.5,2.5,24,0.00,,---,0.00,VWS V14.01,2013-10-22 15:13:00,
2013-10-22 08:18:00,61.9,24.7,30.03,East,90,3.1,3.1,24,0.00,,---,0.00,VWS V14.01,2013-10-22 15:18:00,
2013-10-22 08:23:00,62.6,25.3,30.03,SE,135,3.6,4.9,24,0.00,,---,0.00,VWS V14.01,2013-10-22 15:23:00,
2013-10-22 08:28:00,63.5,26.1,30.03,ESE,112,2.9,2.9,24,0.00,,---,0.00,VWS V14.01,2013-10-22 15:28:00,
2013-10-22 08:33:00,64.4,25.8,30.03,East,90,3.8,3.8,23,0.00,,---,0.00,VWS V14.01,2013-10-22 15:33:00,
2013-10-22 08:38:00,65.8,27.0,30.03,ESE,112,3.4,3.4,23,0.00,,---,0.00,VWS V14.01,2013-10-22 15:38:00,
2013-10-22 08:44:00,67.1,28.1,30.03,ESE,112,2.9,2.9,23,0.00,,---,0.00,VWS V14.01,2013-10-22 15:44:00,
2013-10-22 08:49:00,67.6,28.5,30.03,ESE,112,4.0,4.0,23,0.00,,---,0.00,VWS V14.01,2013-10-22 15:49:00,
2013-10-22 08:54:00,68.5,29.3,30.03,East,90,3.6,3.6,23,0.00,,---,0.00,VWS V14.01,2013-10-22 15:54:00,
2013-10-22 08:59:00,69.6,30.2,30.03,ESE,112,4.0,4.0,23,0.00,,---,0.00,VWS V14.01,2013-10-22 15:59:00,
2013-10-22 09:04:00,70.5,29.9,30.03,ESE,112,3.4,4.9,22,0.00,,---,0.00,VWS V14.01,2013-10-22 16:04:00,
2013-10-22 09:09:00,71.2,30.5,30.03,East,90,3.8,5.6,22,0.00,,---,0.00,VWS V14.01,2013-10-22 16:09:00,
2013-10-22 09:14:00,72.1,31.2,30.00,ESE,112,2.7,2.7,22,0.00,,---,0.00,VWS V14.01,2013-10-22 16:14:00,
2013-10-22 09:19:00,72.7,31.7,30.00,SE,135,2.7,3.4,22,0.00,,---,0.00,VWS V14.01,2013-10-22 16:19:00,
2013-10-22 09:24:00,73.4,31.1,30.00,SE,135,3.4,3.8,21,0.00,,---,0.00,VWS V14.01,2013-10-22 16:24:00,
2013-10-22 09:29:00,73.9,31.6,30.00,ESE,112,2.2,4.0,21,0.00,,---,0.00,VWS V14.01,2013-10-22 16:29:00,
2013-10-22 09:34:00,74.7,32.2,30.00,SE,135,1.3,1.3,21,0.00,,---,0.00,VWS V14.01,2013-10-22 16:34:00,
2013-10-22 09:39:00,75.4,32.8,30.00,ESE,112,2.5,2.5,21,0.00,,---,0.00,VWS V14.01,2013-10-22 16:39:00,
2013-10-22 09:45:00,76.1,33.4,30.00,SSW,202,1.3,1.3,21,0.00,,---,0.00,VWS V14.01,2013-10-22 16:45:00,
2013-10-22 09:50:00,76.6,33.8,30.00,SW,225,3.4,3.4,21,0.00,,---,0.00,VWS V14.01,2013-10-22 16:50:00,
2013-10-22 09:55:00,76.8,34.0,30.00,WSW,248,2.0,4.0,21,0.00,,---,0.00,VWS V14.01,2013-10-22 16:55:00,
2013-10-22 10:00:00,77.2,33.0,30.00,SSW,202,1.3,1.3,20,0.00,,---,0.00,VWS V14.01,2013-10-22 17:00:00,
2013-10-22 10:05:00,77.5,33.3,30.00,SSW,202,1.3,1.3,20,0.00,,---,0.00,VWS V14.01,2013-10-22 17:05:00,
2013-10-22 10:10:00,77.9,33.6,30.00,SSW,202,1.3,2.7,20,0.00,,---,0.00,VWS V14.01,2013-10-22 17:10:00,
2013-10-22 10:15:00,78.1,33.8,30.00,West,270,2.7,2.7,20,0.00,,---,0.00,VWS V14.01,2013-10-22 17:15:00,
2013-10-22 10:20:00,78.4,34.1,30.00,SSW,202,2.2,2.2,20,0.00,,---,0.00,VWS V14.01,2013-10-22 17:20:00,
2013-10-22 10:25:00,79.2,34.7,30.00,South,180,2.2,3.6,20,0.00,,---,0.00,VWS V14.01,2013-10-22 17:25:00,
2013-10-22 10:30:00,79.5,35.0,30.00,SSW,202,1.6,1.6,20,0.00,,---,0.00,VWS V14.01,2013-10-22 17:30:00,
2013-10-22 10:35:00,79.9,35.3,30.00,SSE,158,2.7,2.7,20,0.00,,---,0.00,VWS V14.01,2013-10-22 17:35:00,
2013-10-22 10:40:00,80.4,35.7,30.00,SE,135,2.0,2.0,20,0.00,,---,0.00,VWS V14.01,2013-10-22 17:40:00,
2013-10-22 10:45:00,80.8,34.7,30.00,SE,135,2.0,2.0,19,0.00,,---,0.00,VWS V14.01,2013-10-22 17:45:00,
2013-10-22 10:51:00,81.1,35.0,30.00,SE,135,2.0,2.0,19,0.00,,---,0.00,VWS V14.01,2013-10-22 17:51:00,
2013-10-22 10:56:00,81.7,36.8,30.00,SE,135,2.0,2.0,20,0.00,,---,0.00,VWS V14.01,2013-10-22 17:56:00,
2013-10-22 11:01:00,82.0,37.0,30.00,SE,135,2.0,2.0,20,0.00,,---,0.00,VWS V14.01,2013-10-22 18:01:00,
2013-10-22 11:06:00,82.4,36.0,30.00,South,180,1.3,1.3,19,0.00,,---,0.00,VWS V14.01,2013-10-22 18:06:00,
2013-10-22 11:11:00,82.6,36.2,30.00,SW,225,2.2,2.2,19,0.00,,---,0.00,VWS V14.01,2013-10-22 18:11:00,
2013-10-22 11:16:00,82.6,36.2,30.00,SW,225,2.2,2.2,19,0.00,,---,0.00,VWS V14.01,2013-10-22 18:16:00,
2013-10-22 11:21:00,83.1,36.6,30.00,SW,225,2.2,2.2,19,0.00,,---,0.00,VWS V14.01,2013-10-22 18:21:00,
2013-10-22 11:26:00,83.3,36.8,30.00,SW,225,2.2,2.2,19,0.00,,---,0.00,VWS V14.01,2013-10-22 18:26:00,
2013-10-22 11:31:00,83.7,37.1,29.97,SW,225,2.2,2.2,19,0.00,,---,0.00,VWS V14.01,2013-10-22 18:31:00,
2013-10-22 11:36:00,83.8,37.2,29.97,SW,225,2.2,2.2,19,0.00,,---,0.00,VWS V14.01,2013-10-22 18:36:00,
2013-10-22 11:41:00,84.2,36.2,29.97,SW,225,2.2,2.2,18,0.00,,---,0.00,VWS V14.01,2013-10-22 18:41:00,
2013-10-22 11:46:00,84.6,36.4,29.97,WSW,248,1.1,1.1,18,0.00,,---,0.00,VWS V14.01,2013-10-22 18:46:00,
2013-10-22 11:52:00,85.3,37.0,29.97,WSW,248,1.1,1.1,18,0.00,,---,0.00,VWS V14.01,2013-10-22 18:52:00,
2013-10-22 11:57:00,85.5,37.2,29.97,WSW,248,1.1,1.1,18,0.00,,---,0.00,VWS V14.01,2013-10-22 18:57:00,
2013-10-22 12:02:00,85.8,34.5,29.97,WSW,248,1.1,1.1,16,0.00,,---,0.00,VWS V14.01,2013-10-22 19:02:00,
2013-10-22 12:07:00,86.4,37.9,29.97,WSW,248,1.1,1.1,18,0.00,,---,0.00,VWS V14.01,2013-10-22 19:07:00,
2013-10-22 12:12:00,86.7,35.2,29.94,WSW,248,1.1,1.1,16,0.00,,---,0.00,VWS V14.01,2013-10-22 19:12:00,
2013-10-22 12:17:00,86.5,35.1,29.94,WSW,248,1.1,1.1,16,0.00,,---,0.00,VWS V14.01,2013-10-22 19:17:00,
2013-10-22 12:22:00,86.9,35.3,29.94,WSW,248,1.1,1.1,16,0.00,,---,0.00,VWS V14.01,2013-10-22 19:22:00,
2013-10-22 12:27:00,87.1,35.5,29.94,WSW,248,1.1,1.1,16,0.00,,---,0.00,VWS V14.01,2013-10-22 19:27:00,
2013-10-22 12:32:00,87.3,35.6,29.94,WSW,248,1.1,1.1,16,0.00,,---,0.00,VWS V14.01,2013-10-22 19:32:00,
2013-10-22 12:37:00,87.4,35.8,29.94,WSW,248,1.1,1.1,16,0.00,,---,0.00,VWS V14.01,2013-10-22 19:37:00,
2013-10-22 12:42:00,87.6,35.9,29.94,WSW,248,1.1,1.1,16,0.00,,---,0.00,VWS V14.01,2013-10-22 19:42:00,
2013-10-22 12:47:00,88.0,34.6,29.94,WSW,248,1.1,1.1,15,0.00,,---,0.00,VWS V14.01,2013-10-22 19:47:00,
2013-10-22 12:53:00,88.2,34.7,29.94,WSW,248,1.1,1.1,15,0.00,,---,0.00,VWS V14.01,2013-10-22 19:53:00,
2013-10-22 12:58:00,88.5,35.0,29.94,WSW,248,1.1,1.1,15,0.00,,---,0.00,VWS V14.01,2013-10-22 19:58:00,
2013-10-22 13:03:00,88.7,35.2,29.94,WSW,248,1.1,1.1,15,0.00,,---,0.00,VWS V14.01,2013-10-22 20:03:00,
2013-10-22 13:08:00,88.9,35.3,29.94,WSW,248,1.1,1.1,15,0.00,,---,0.00,VWS V14.01,2013-10-22 20:08:00,
2013-10-22 13:13:00,89.1,35.5,29.91,WSW,248,1.1,1.1,15,0.00,,---,0.00,VWS V14.01,2013-10-22 20:13:00,
2013-10-22 13:18:00,89.1,35.5,29.91,WSW,248,1.1,1.1,15,0.00,,---,0.00,VWS V14.01,2013-10-22 20:18:00,
2013-10-22 13:23:00,89.1,35.5,29.91,WSW,248,1.1,1.1,15,0.00,,---,0.00,VWS V14.01,2013-10-22 20:23:00,
2013-10-22 13:28:00,89.2,35.6,29.91,WSW,248,1.1,1.1,15,0.00,,---,0.00,VWS V14.01,2013-10-22 20:28:00,
2013-10-22 13:33:00,89.4,35.7,29.91,WSW,248,1.1,1.1,15,0.00,,---,0.00,VWS V14.01,2013-10-22 20:33:00,
2013-10-22 13:38:00,89.2,35.6,29.91,WSW,248,1.1,1.1,15,0.00,,---,0.00,VWS V14.01,2013-10-22 20:38:00,
2013-10-22 13:43:00,89.2,35.6,29.91,WSW,248,1.1,1.1,15,0.00,,---,0.00,VWS V14.01,2013-10-22 20:43:00,
2013-10-22 13:48:00,89.2,35.6,29.91,WSW,248,1.1,1.1,15,0.00,,---,0.00,VWS V14.01,2013-10-22 20:48:00,
2013-10-22 13:53:00,89.1,35.5,29.91,WSW,248,1.1,1.1,15,0.00,,---,0.00,VWS V14.01,2013-10-22 20:53:00,
2013-10-22 13:58:00,89.4,35.7,29.91,WSW,248,1.1,1.1,15,0.00,,---,0.00,VWS V14.01,2013-10-22 20:58:00,
2013-10-22 14:04:00,89.2,35.6,29.91,WSW,248,1.1,1.1,15,0.00,,---,0.00,VWS V14.01,2013-10-22 21:04:00,
2013-10-22 14:09:00,89.4,35.7,29.91,WSW,248,1.1,1.1,15,0.00,,---,0.00,VWS V14.01,2013-10-22 21:09:00,
2013-10-22 14:14:00,89.6,35.9,29.91,WSW,248,1.1,1.1,15,0.00,,---,0.00,VWS V14.01,2013-10-22 21:14:00,
2013-10-22 14:19:00,89.6,35.9,29.91,WSW,248,1.1,1.1,15,0.00,,---,0.00,VWS V14.01,2013-10-22 21:19:00,
2013-10-22 14:24:00,89.6,35.9,29.91,WSW,248,1.1,1.1,15,0.00,,---,0.00,VWS V14.01,2013-10-22 21:24:00,
2013-10-22 14:29:00,89.4,35.7,29.91,WSW,248,1.1,1.1,15,0.00,,---,0.00,VWS V14.01,2013-10-22 21:29:00,
2013-10-22 14:34:00,89.4,35.7,29.91,WSW,248,1.1,1.1,15,0.00,,---,0.00,VWS V14.01,2013-10-22 21:34:00,
2013-10-22 14:39:00,89.4,35.7,29.91,WSW,248,1.1,1.1,15,0.00,,---,0.00,VWS V14.01,2013-10-22 21:39:00,
2013-10-22 14:44:00,89.6,35.9,29.91,WSW,248,1.1,1.1,15,0.00,,---,0.00,VWS V14.01,2013-10-22 21:44:00,
2013-10-22 14:49:00,89.6,35.9,29.91,WSW,248,1.1,1.1,15,0.00,,---,0.00,VWS V14.01,2013-10-22 21:49:00,
2013-10-22 14:54:00,89.8,36.0,29.91,WSW,248,1.1,1.1,15,0.00,,---,0.00,VWS V14.01,2013-10-22 21:54:00,
2013-10-22 14:59:00,89.8,36.0,29.91,WSW,248,1.1,1.1,15,0.00,,---,0.00,VWS V14.01,2013-10-22 21:59:00,
2013-10-22 15:05:00,90.0,36.2,29.91,WSW,248,1.1,1.1,15,0.00,,---,0.00,VWS V14.01,2013-10-22 22:05:00,
2013-10-22 15:10:00,89.8,36.0,29.91,WSW,248,1.1,1.1,15,0.00,,---,0.00,VWS V14.01,2013-10-22 22:10:00,
2013-10-22 15:15:00,90.0,36.2,29.91,WSW,248,1.1,1.1,15,0.00,,---,0.00,VWS V14.01,2013-10-22 22:15:00,
2013-10-22 15:20:00,89.6,35.9,29.91,WSW,248,1.1,1.1,15,0.00,,---,0.00,VWS V14.01,2013-10-22 22:20:00,
2013-10-22 15:25:00,89.8,36.0,29.91,WSW,248,1.1,1.1,15,0.00,,---,0.00,VWS V14.01,2013-10-22 22:25:00,
2013-10-22 15:30:00,89.6,35.9,29.91,WSW,248,1.1,1.1,15,0.00,,---,0.00,VWS V14.01,2013-10-22 22:30:00,
2013-10-22 15:35:00,89.2,35.6,29.91,WSW,248,1.1,1.1,15,0.00,,---,0.00,VWS V14.01,2013-10-22 22:35:00,
2013-10-22 15:40:00,89.1,35.5,29.91,WSW,248,1.1,1.1,15,0.00,,---,0.00,VWS V14.01,2013-10-22 22:40:00,
2013-10-22 15:45:00,89.1,35.5,29.91,WSW,248,1.1,1.1,15,0.00,,---,0.00,VWS V14.01,2013-10-22 22:45:00,
2013-10-22 15:50:00,88.9,35.3,29.91,WSW,248,1.1,1.1,15,0.00,,---,0.00,VWS V14.01,2013-10-22 22:50:00,
2013-10-22 15:55:00,88.9,35.3,29.91,WSW,248,1.1,1.1,15,0.00,,---,0.00,VWS V14.01,2013-10-22 22:55:00,
2013-10-22 16:00:00,88.9,35.3,29.91,WSW,248,1.1,1.1,15,0.00,,---,0.00,VWS V14.01,2013-10-22 23:00:00,
2013-10-22 16:06:00,88.7,35.2,29.91,WSW,248,1.1,1.1,15,0.00,,---,0.00,VWS V14.01,2013-10-22 23:06:00,
2013-10-22 16:11:00,88.7,35.2,29.91,WSW,248,1.1,1.1,15,0.00,,---,0.00,VWS V14.01,2013-10-22 23:11:00,
2013-10-22 16:16:00,88.3,34.9,29.91,WSW,248,1.1,1.1,15,0.00,,---,0.00,VWS V14.01,2013-10-22 23:16:00,
2013-10-22 16:21:00,88.2,31.2,29.91,WSW,248,1.1,1.1,13,0.00,,---,0.00,VWS V14.01,2013-10-22 23:21:00,
2013-10-22 16:26:00,87.8,30.9,29.91,WSW,248,1.1,1.1,13,0.00,,---,0.00,VWS V14.01,2013-10-22 23:26:00,
2013-10-22 16:31:00,87.3,35.6,29.88,WSW,248,1.1,1.1,16,0.00,,---,0.00,VWS V14.01,2013-10-22 23:31:00,
2013-10-22 16:36:00,87.3,35.6,29.88,WSW,248,1.1,1.1,16,0.00,,---,0.00,VWS V14.01,2013-10-22 23:36:00,
2013-10-22 16:41:00,86.7,30.0,29.88,WSW,248,1.1,1.1,13,0.00,,---,0.00,VWS V14.01,2013-10-22 23:41:00,
2013-10-22 16:46:00,86.4,29.8,29.91,WSW,248,1.1,1.1,13,0.00,,---,0.00,VWS V14.01,2013-10-22 23:46:00,
2013-10-22 16:52:00,85.6,29.2,29.91,WSW,248,1.1,1.1,13,0.00,,---,0.00,VWS V14.01,2013-10-22 23:52:00,
2013-10-22 16:57:00,85.1,28.8,29.91,WSW,248,1.1,1.1,13,0.00,,---,0.00,VWS V14.01,2013-10-22 23:57:00,
2013-10-22 17:02:00,84.4,28.2,29.91,WSW,248,1.1,1.1,13,0.00,,---,0.00,VWS V14.01,2013-10-23 00:02:00,
2013-10-22 17:07:00,83.7,29.5,29.91,WSW,248,1.1,1.1,14,0.00,,---,0.00,VWS V14.01,2013-10-23 00:07:00,
2013-10-22 17:12:00,82.8,28.8,29.91,WSW,248,1.1,1.1,14,0.00,,---,0.00,VWS V14.01,2013-10-23 00:12:00,
2013-10-22 17:17:00,82.0,28.2,29.91,WSW,248,1.1,1.1,14,0.00,,---,0.00,VWS V14.01,2013-10-23 00:17:00,
2013-10-22 17:22:00,81.3,27.6,29.91,WSW,248,1.1,1.1,14,0.00,,---,0.00,VWS V14.01,2013-10-23 00:22:00,
2013-10-22 17:27:00,80.6,27.0,29.91,WSW,248,1.1,1.1,14,0.00,,---,0.00,VWS V14.01,2013-10-23 00:27:00,
2013-10-22 17:32:00,79.9,28.1,29.91,WSW,248,1.1,1.1,15,0.00,,---,0.00,VWS V14.01,2013-10-23 00:32:00,
2013-10-22 17:37:00,79.5,27.9,29.91,WSW,248,1.1,1.1,15,0.00,,---,0.00,VWS V14.01,2013-10-23 00:37:00,
2013-10-22 17:42:00,78.8,27.3,29.88,WSW,248,1.1,1.1,15,0.00,,---,0.00,VWS V14.01,2013-10-23 00:42:00,
2013-10-22 17:48:00,78.3,26.9,29.88,WSW,248,1.1,1.1,15,0.00,,---,0.00,VWS V14.01,2013-10-23 00:48:00,
2013-10-22 17:53:00,77.5,26.3,29.88,WSW,248,1.1,1.1,15,0.00,,---,0.00,VWS V14.01,2013-10-23 00:53:00,
2013-10-22 17:58:00,77.0,25.9,29.91,WSW,248,1.1,1.1,15,0.00,,---,0.00,VWS V14.01,2013-10-23 00:58:00,
2013-10-22 18:03:00,76.3,25.3,29.91,WSW,248,1.1,1.1,15,0.00,,---,0.00,VWS V14.01,2013-10-23 01:03:00,
2013-10-22 18:08:00,75.6,24.7,29.91,WSW,248,1.1,1.1,15,0.00,,---,0.00,VWS V14.01,2013-10-23 01:08:00,
2013-10-22 18:13:00,75.2,24.4,29.91,WSW,248,1.1,1.1,15,0.00,,---,0.00,VWS V14.01,2013-10-23 01:13:00,
2013-10-22 18:18:00,74.8,25.7,29.91,WSW,248,1.1,1.1,16,0.00,,---,0.00,VWS V14.01,2013-10-23 01:18:00,
2013-10-22 18:23:00,73.9,25.0,29.91,WSW,248,1.1,1.1,16,0.00,,---,0.00,VWS V14.01,2013-10-23 01:23:00,
2013-10-22 18:28:00,74.1,25.1,29.91,WSW,248,1.1,1.1,16,0.00,,---,0.00,VWS V14.01,2013-10-23 01:28:00,
2013-10-22 18:34:00,74.5,25.4,29.91,WSW,248,1.1,1.1,16,0.00,,---,0.00,VWS V14.01,2013-10-23 01:34:00,
2013-10-22 18:39:00,74.3,25.2,29.91,WSW,248,1.1,1.1,16,0.00,,---,0.00,VWS V14.01,2013-10-23 01:39:00,
2013-10-22 18:44:00,74.3,25.2,29.91,WSW,248,1.1,1.1,16,0.00,,---,0.00,VWS V14.01,2013-10-23 01:44:00,
2013-10-22 18:49:00,75.0,25.8,29.91,WSW,248,1.1,1.1,16,0.00,,---,0.00,VWS V14.01,2013-10-23 01:49:00,
2013-10-22 18:54:00,74.8,25.7,29.91,WSW,248,1.1,1.1,16,0.00,,---,0.00,VWS V14.01,2013-10-23 01:54:00,
2013-10-22 18:59:00,74.8,25.7,29.91,WSW,248,1.1,1.1,16,0.00,,---,0.00,VWS V14.01,2013-10-23 01:59:00,
2013-10-22 19:04:00,74.8,25.7,29.91,WSW,248,1.1,1.1,16,0.00,,---,0.00,VWS V14.01,2013-10-23 02:04:00,
2013-10-22 19:09:00,75.0,25.8,29.91,WSW,248,1.1,1.1,16,0.00,,---,0.00,VWS V14.01,2013-10-23 02:09:00,
2013-10-22 19:14:00,74.8,25.7,29.91,WSW,248,1.1,1.1,16,0.00,,---,0.00,VWS V14.01,2013-10-23 02:14:00,
2013-10-22 19:19:00,74.8,25.7,29.91,WSW,248,1.1,1.1,16,0.00,,---,0.00,VWS V14.01,2013-10-23 02:19:00,
2013-10-22 19:24:00,74.7,25.5,29.91,WSW,248,1.1,1.1,16,0.00,,---,0.00,VWS V14.01,2013-10-23 02:24:00,
2013-10-22 19:29:00,74.1,25.1,29.91,WSW,248,1.1,1.1,16,0.00,,---,0.00,VWS V14.01,2013-10-23 02:29:00,
2013-10-22 19:34:00,73.9,25.0,29.91,WSW,248,1.1,1.1,16,0.00,,---,0.00,VWS V14.01,2013-10-23 02:34:00,
2013-10-22 19:40:00,73.9,25.0,29.91,WSW,248,1.1,1.1,16,0.00,,---,0.00,VWS V14.01,2013-10-23 02:40:00,
2013-10-22 19:45:00,73.8,24.8,29.91,WSW,248,1.1,1.1,16,0.00,,---,0.00,VWS V14.01,2013-10-23 02:45:00,
2013-10-22 19:50:00,73.6,24.7,29.91,WSW,248,1.1,1.1,16,0.00,,---,0.00,VWS V14.01,2013-10-23 02:50:00,
2013-10-22 19:55:00,73.0,24.2,29.91,WSW,248,1.1,1.1,16,0.00,,---,0.00,VWS V14.01,2013-10-23 02:55:00,
2013-10-22 20:00:00,72.7,23.9,29.91,North,0,2.2,2.2,16,0.00,,---,0.00,VWS V14.01,2013-10-23 03:00:00,
2013-10-22 20:05:00,72.3,23.6,29.91,North,0,1.6,1.6,16,0.00,,---,0.00,VWS V14.01,2013-10-23 03:05:00,
2013-10-22 20:10:00,72.3,23.6,29.91,North,0,1.3,1.3,16,0.00,,---,0.00,VWS V14.01,2013-10-23 03:10:00,
2013-10-22 20:15:00,72.1,23.5,29.91,North,0,2.0,2.0,16,0.00,,---,0.00,VWS V14.01,2013-10-23 03:15:00,
2013-10-22 20:20:00,72.0,23.4,29.91,NW,315,1.6,1.6,16,0.00,,---,0.00,VWS V14.01,2013-10-23 03:20:00,
2013-10-22 20:25:00,71.8,23.2,29.91,NNW,338,1.6,1.6,16,0.00,,---,0.00,VWS V14.01,2013-10-23 03:25:00,
2013-10-22 20:31:00,71.6,23.1,29.91,NNW,338,1.6,1.6,16,0.00,,---,0.00,VWS V14.01,2013-10-23 03:31:00,
2013-10-22 20:36:00,71.4,24.4,29.91,NNW,338,2.2,2.2,17,0.00,,---,0.00,VWS V14.01,2013-10-23 03:36:00,
2013-10-22 20:41:00,71.2,24.2,29.91,NW,315,1.3,1.3,17,0.00,,---,0.00,VWS V14.01,2013-10-23 03:41:00,
2013-10-22 20:46:00,70.9,23.9,29.91,NW,315,1.3,1.3,17,0.00,,---,0.00,VWS V14.01,2013-10-23 03:46:00,
2013-10-22 20:51:00,70.7,23.8,29.91,NW,315,1.3,1.3,17,0.00,,---,0.00,VWS V14.01,2013-10-23 03:51:00,
2013-10-22 20:56:00,70.9,23.9,29.91,NW,315,1.6,1.6,17,0.00,,---,0.00,VWS V14.01,2013-10-23 03:56:00,
2013-10-22 21:01:00,71.2,24.2,29.94,NNW,338,2.5,2.5,17,0.00,,---,0.00,VWS V14.01,2013-10-23 04:01:00,
2013-10-22 21:02:00,71.2,24.2,29.94,SW,225,1.6,1.6,17,0.00,,---,0.00,VWS V14.01,2013-10-23 04:02:00,
2013-10-22 21:07:00,70.3,23.5,29.94,SSW,202,0.0,0.0,17,0.00,,---,0.00,VWS V14.01,2013-10-23 04:07:00,
2013-10-22 21:12:00,69.4,22.8,29.91,West,270,0.0,0.0,17,0.00,,---,0.00,VWS V14.01,2013-10-23 04:12:00,
2013-10-22 21:17:00,68.5,22.0,29.91,West,270,0.0,0.0,17,0.00,,---,0.00,VWS V14.01,2013-10-23 04:17:00,
2013-10-22 21:22:00,68.0,21.6,29.91,West,270,0.0,0.0,17,0.00,,---,0.00,VWS V14.01,2013-10-23 04:22:00,
2013-10-22 21:27:00,67.3,21.0,29.91,West,270,0.0,0.0,17,0.00,,---,0.00,VWS V14.01,2013-10-23 04:27:00,
2013-10-22 21:32:00,66.9,20.7,29.91,West,270,0.0,0.0,17,0.00,,---,0.00,VWS V14.01,2013-10-23 04:32:00,
2013-10-22 21:37:00,67.1,20.9,29.91,West,270,0.0,0.0,17,0.00,,---,0.00,VWS V14.01,2013-10-23 04:37:00,
2013-10-22 21:42:00,66.7,20.6,29.94,West,270,0.0,0.0,17,0.00,,---,0.00,VWS V14.01,2013-10-23 04:42:00,
2013-10-22 21:47:00,66.6,20.4,29.94,West,270,0.0,0.0,17,0.00,,---,0.00,VWS V14.01,2013-10-23 04:47:00,
2013-10-22 21:53:00,66.4,20.3,29.94,West,270,0.0,0.0,17,0.00,,---,0.00,VWS V14.01,2013-10-23 04:53:00,
2013-10-22 21:58:00,66.0,21.3,29.91,West,270,0.0,0.0,18,0.00,,---,0.00,VWS V14.01,2013-10-23 04:58:00,
2013-10-22 22:03:00,65.8,21.2,29.91,West,270,0.0,0.0,18,0.00,,---,0.00,VWS V14.01,2013-10-23 05:03:00,
2013-10-22 22:08:00,65.5,20.9,29.91,West,270,0.0,0.0,18,0.00,,---,0.00,VWS V14.01,2013-10-23 05:08:00,
2013-10-22 22:13:00,64.8,20.3,29.94,West,270,0.0,0.0,18,0.00,,---,0.00,VWS V14.01,2013-10-23 05:13:00,
2013-10-22 22:18:00,64.2,19.9,29.94,West,270,0.0,0.0,18,0.00,,---,0.00,VWS V14.01,2013-10-23 05:18:00,
2013-10-22 22:23:00,64.4,22.5,29.94,West,270,0.0,0.0,20,0.00,,---,0.00,VWS V14.01,2013-10-23 05:23:00,
2013-10-22 22:28:00,64.0,19.7,29.94,West,270,0.0,0.0,18,0.00,,---,0.00,VWS V14.01,2013-10-23 05:28:00,
2013-10-22 22:33:00,63.5,19.3,29.94,West,270,0.0,0.0,18,0.00,,---,0.00,VWS V14.01,2013-10-23 05:33:00,
2013-10-22 22:38:00,63.5,22.9,29.94,West,270,0.0,0.0,21,0.00,,---,0.00,VWS V14.01,2013-10-23 05:38:00,
2013-10-22 22:44:00,64.4,22.5,29.91,West,270,0.0,0.0,20,0.00,,---,0.00,VWS V14.01,2013-10-23 05:44:00,
2013-10-22 22:49:00,64.0,23.3,29.91,West,270,0.0,0.0,21,0.00,,---,0.00,VWS V14.01,2013-10-23 05:49:00,
2013-10-22 22:54:00,64.0,23.3,29.91,West,270,0.0,0.0,21,0.00,,---,0.00,VWS V14.01,2013-10-23 05:54:00,
2013-10-22 22:59:00,63.5,22.9,29.91,West,270,0.0,0.0,21,0.00,,---,0.00,VWS V14.01,2013-10-23 05:59:00,
2013-10-22 23:04:00,63.0,22.5,29.91,West,270,0.0,0.0,21,0.00,,---,0.00,VWS V14.01,2013-10-23 06:04:00,
2013-10-22 23:09:00,63.0,22.5,29.91,West,270,0.0,0.0,21,0.00,,---,0.00,VWS V14.01,2013-10-23 06:09:00,
2013-10-22 23:14:00,62.8,22.3,29.94,West,270,0.0,0.0,21,0.00,,---,0.00,VWS V14.01,2013-10-23 06:14:00,
2013-10-22 23:19:00,62.6,22.1,29.94,West,270,0.0,0.0,21,0.00,,---,0.00,VWS V14.01,2013-10-23 06:19:00,
2013-10-22 23:24:00,62.8,22.3,29.94,West,270,0.0,0.0,21,0.00,,---,0.00,VWS V14.01,2013-10-23 06:24:00,
2013-10-22 23:30:00,63.5,22.9,29.91,West,270,0.0,0.0,21,0.00,,---,0.00,VWS V14.01,2013-10-23 06:30:00,
2013-10-22 23:35:00,63.3,22.8,29.91,West,270,0.0,0.0,21,0.00,,---,0.00,VWS V14.01,2013-10-23 06:35:00,
2013-10-22 23:40:00,63.3,22.8,29.91,West,270,0.0,0.0,21,0.00,,---,0.00,VWS V14.01,2013-10-23 06:40:00,
2013-10-22 23:45:00,63.5,22.9,29.91,West,270,0.0,0.0,21,0.00,,---,0.00,VWS V14.01,2013-10-23 06:45:00,
2013-10-22 23:50:00,63.5,22.9,29.91,West,270,0.0,0.0,21,0.00,,---,0.00,VWS V14.01,2013-10-23 06:50:00,
2013-10-22 23:55:00,63.5,22.9,29.91,West,270,0.0,0.0,21,0.00,,---,0.00,VWS V14.01,2013-10-23 06:55:00,